GW4718 Weather Reports


time (UTC)temp
C
wind
direction
speed
KPH
gust
KPH
rain 1hr
cm
rain 24hr
cm
rain mn
cm
humidity
%
barometer
mb
20260903020023 23 93 0.0 0.0 0.00 0.00 0.00 90 1022.5
20260903015519 22 144 0.0 0.0 0.00 0.00 0.00 91 1022.5
20260903015014 22 113 0.0 0.0 0.00 0.00 0.00 93 1022.6
20260903014513 22 83 0.0 0.0 0.00 0.00 0.00 92 1022.6
20260903014008 22 250 0.0 0.0 0.00 0.00 0.00 92 1022.6
20260903013503 22 89 0.0 0.0 0.00 0.00 0.00 92 1022.5
20260903013003 22 164 0.0 0.0 0.00 0.00 0.00 92 1022.4
20260903012501 22 59 0.0 0.0 0.00 0.00 0.00 91 1022.6
20260903012000 22 111 0.0 0.0 0.00 0.00 0.00 91 1022.7
20260903011455 22 127 0.0 0.0 0.00 0.00 0.00 93 1022.5
20260903010950 22 43 0.0 0.0 0.00 0.00 0.00 92 1022.5
20260903010445 23 118 0.0 0.0 0.00 0.00 0.00 91 1022.5
20260903005942 23 87 0.0 0.0 0.00 0.00 0.00 90 1022.8
20260903005433 23 86 0.0 0.0 0.00 0.00 0.00 89 1022.3
20260903004929 23 138 0.0 0.0 0.00 0.00 0.00 89 1022.4
20260903004423 23 216 0.0 0.0 0.00 0.00 0.00 88 1022.1
20260903003914 23 100 0.0 0.0 0.00 0.00 0.00 88 1022.1
20260903003414 23 126 0.0 0.0 0.00 0.00 0.00 88 1022.2
20260903002914 23 200 0.0 0.0 0.00 0.00 0.00 88 1022.2
20260903002409 23 121 0.0 0.0 0.00 0.00 0.00 89 1022.3
20260903001908 23 114 0.0 0.0 0.00 0.00 0.00 88 1022.1
20260903001403 24 87 0.0 1.6 0.00 0.00 0.00 88 1021.8
20260903000903 24 338 0.0 0.0 0.00 0.00 0.00 87 1021.9
20260903000358 24 161 0.0 0.0 0.00 0.00 0.00 87 1021.9
20260902235856 25 114 0.0 3.2 0.00 0.00 0.00 85 1021.8
20260902235352 25 119 0.0 0.0 0.00 0.00 0.00 87 1021.8
20260902234851 25 277 1.6 3.2 0.00 0.00 0.00 85 1021.7
20260902234351 25 114 1.6 3.2 0.00 0.00 0.00 86 1021.7
20260902233850 25 222 0.0 0.0 0.00 0.00 0.00 85 1021.9
20260902233344 25 123 0.0 0.0 0.00 0.00 0.00 84 1021.7
20260902232843 26 212 1.6 3.2 0.00 0.00 0.00 84 1021.9
20260902232338 26 107 1.6 3.2 0.00 0.00 0.00 81 1021.8
20260902231833 26 75 1.6 1.6 0.00 0.00 0.00 83 1021.8
20260902231328 26 208 0.0 3.2 0.00 0.00 0.00 79 1021.8
20260902230823 27 95 0.0 0.0 0.00 0.00 0.00 78 1021.8
20260902230322 27 219 0.0 1.6 0.00 0.00 0.00 76 1021.8
20260902225822 28 183 0.0 1.6 0.00 0.00 0.00 74 1021.7
20260902225317 30 272 1.6 3.2 0.00 0.00 0.00 62 1021.7
20260902224815 30 151 3.2 3.2 0.00 0.00 0.00 61 1021.8
20260902224310 30 152 3.2 4.8 0.00 0.00 0.00 61 1021.8
20260902223808 31 129 1.6 3.2 0.00 0.00 0.00 62 1021.9
20260902223307 31 59 3.2 9.7 0.00 0.00 0.00 58 1021.6
20260902222801 31 119 3.2 4.8 0.00 0.00 0.00 58 1021.5
20260902222300 31 84 4.8 6.4 0.00 0.00 0.00 58 1021.6
20260902221754 32 132 1.6 3.2 0.00 0.00 0.00 61 1021.6
20260902221254 32 280 1.6 4.8 0.00 0.00 0.00 57 1021.6
20260902220750 32 218 1.6 4.8 0.00 0.00 0.00 58 1021.5
20260902220249 33 183 1.6 1.6 0.00 0.00 0.00 56 1021.5
20260902215745 32 249 1.6 4.8 0.00 0.00 0.00 55 1021.5
20260902215240 32 244 1.6 3.2 0.00 0.00 0.00 54 1021.5
20260902214736 32 287 0.0 4.8 0.00 0.00 0.00 57 1021.4
20260902214234 33 247 3.2 4.8 0.00 0.00 0.00 52 1021.5
20260902213725 33 217 0.0 3.2 0.00 0.00 0.00 58 1021.4
20260902213224 32 67 0.0 3.2 0.00 0.00 0.00 56 1021.4
20260902212724 32 198 3.2 6.4 0.00 0.00 0.00 54 1021.6
20260902212220 33 244 4.8 11.3 0.00 0.00 0.00 55 1021.5
20260902211716 33 229 3.2 4.8 0.00 0.00 0.00 54 1021.6
20260902211211 32 179 3.2 4.8 0.00 0.00 0.00 58 1021.6
20260902210706 32 244 3.2 4.8 0.00 0.00 0.00 54 1021.4
20260902210202 32 206 4.8 6.4 0.00 0.00 0.00 57 1021.5
20260902205659 32 162 11.3 14.5 0.00 0.00 0.00 56 1021.7
20260902205154 32 196 4.8 11.3 0.00 0.00 0.00 58 1021.7
20260902204649 32 201 6.4 12.9 0.00 0.00 0.00 53 1021.7
20260902204144 32 212 3.2 11.3 0.00 0.00 0.00 53 1021.5
20260902203640 33 194 4.8 6.4 0.00 0.00 0.00 54 1021.5
20260902203139 32 229 1.6 4.8 0.00 0.00 0.00 54 1021.7
20260902202635 33 221 6.4 9.7 0.00 0.00 0.00 52 1021.6
20260902202131 33 172 3.2 6.4 0.00 0.00 0.00 56 1021.6
20260902201627 33 144 1.6 4.8 0.00 0.00 0.00 55 1021.5
20260902201121 33 173 11.3 12.9 0.00 0.00 0.00 52 1021.6
20260902200616 32 206 3.2 4.8 0.00 0.00 0.00 57 1021.6
20260902200112 31 187 0.0 3.2 0.00 0.00 0.00 59 1021.5
20260902195607 31 181 0.0 4.8 0.00 0.00 0.00 58 1021.5
20260902195106 32 178 3.2 4.8 0.00 0.00 0.00 56 1021.6
20260902194606 32 181 3.2 3.2 0.00 0.00 0.00 59 1021.7
20260902194101 32 255 3.2 4.8 0.00 0.00 0.00 54 1021.8
20260902193557 33 298 0.0 1.6 0.00 0.00 0.00 52 1021.7
20260902193056 32 76 3.2 3.2 0.00 0.00 0.00 60 1021.7
20260902192555 30 115 4.8 6.4 0.00 0.00 0.00 63 1021.8
20260902192054 31 112 4.8 6.4 0.00 0.00 0.00 63 1022.1
20260902191549 31 118 0.0 1.6 0.00 0.00 0.00 66 1021.8
20260902191043 32 250 0.0 3.2 0.00 0.00 0.00 52 1022.2
20260902190539 32 135 3.2 9.7 0.00 0.00 0.00 55 1021.8
20260902190034 33 227 4.8 11.3 0.00 0.00 0.00 52 1022.1
20260902185530 33 221 0.0 3.2 0.00 0.00 0.00 51 1022.3
20260902185026 32 137 3.2 6.4 0.00 0.00 0.00 53 1022.1
20260902184521 33 245 4.8 9.7 0.00 0.00 0.00 50 1022.1
20260902184016 33 166 0.0 1.6 0.00 0.00 0.00 50 1022.4
20260902183512 32 79 1.6 3.2 0.00 0.00 0.00 51 1022.3
20260902183009 33 222 4.8 4.8 0.00 0.00 0.00 56 1022.6
20260902182504 32 79 3.2 3.2 0.00 0.00 0.00 57 1022.6
20260902182000 32 125 0.0 3.2 0.00 0.00 0.00 57 1022.6
20260902181455 32 53 0.0 1.6 0.00 0.00 0.00 54 1022.6
20260902180950 32 179 0.0 3.2 0.00 0.00 0.00 56 1022.7
20260902180445 32 32 0.0 3.2 0.00 0.00 0.00 56 1022.7
20260902175941 31 337 3.2 4.8 0.00 0.00 0.00 55 1022.8
20260902175441 31 98 4.8 4.8 0.00 0.00 0.00 63 1022.9
20260902174937 33 101 0.0 3.2 0.00 0.00 0.00 55 1022.9
20260902174434 34 29 0.0 1.6 0.00 0.00 0.00 48 1022.8
20260902173929 34 195 0.0 3.2 0.00 0.00 0.00 51 1023.2
20260902173428 33 36 0.0 4.8 0.00 0.00 0.00 60 1023.0
20260902172924 33 54 4.8 4.8 0.00 0.00 0.00 53 1023.1
20260902172423 33 191 1.6 4.8 0.00 0.00 0.00 52 1023.1
20260902171918 32 162 3.2 3.2 0.00 0.00 0.00 51 1023.2
20260902171414 33 265 8.0 11.3 0.00 0.00 0.00 55 1023.3
20260902170910 33 4 0.0 1.6 0.00 0.00 0.00 54 1023.0
20260902170405 32 325 1.6 4.8 0.00 0.00 0.00 54 1023.3
20260902165900 33 12 0.0 4.8 0.00 0.00 0.00 55 1023.2
20260902165359 33 69 1.6 3.2 0.00 0.00 0.00 56 1023.1
20260902164854 32 111 0.0 4.8 0.00 0.00 0.00 54 1023.1
20260902164349 32 88 4.8 6.4 0.00 0.00 0.00 60 1023.5
20260902163848 32 100 0.0 3.2 0.00 0.00 0.00 56 1023.6
20260902163343 33 84 4.8 4.8 0.00 0.00 0.00 54 1023.5
20260902162842 33 246 0.0 3.2 0.00 0.00 0.00 54 1023.5
20260902162337 32 77 0.0 1.6 0.00 0.00 0.00 61 1023.5
20260902161836 32 143 0.0 1.6 0.00 0.00 0.00 54 1023.6
20260902161332 32 220 3.2 3.2 0.00 0.00 0.00 58 1023.5
20260902160828 31 87 3.2 4.8 0.00 0.00 0.00 58 1023.9
20260902160323 31 117 1.6 4.8 0.00 0.00 0.00 57 1023.7
20260902155821 32 107 0.0 0.0 0.00 0.00 0.00 67 1023.6
20260902155320 31 119 1.6 3.2 0.00 0.00 0.00 64 1023.6
20260902154815 31 67 1.6 4.8 0.00 0.00 0.00 62 1023.7
20260902154311 30 43 4.8 4.8 0.00 0.00 0.00 67 1023.7
20260902153809 30 95 3.2 4.8 0.00 0.00 0.00 73 1023.6
20260902153304 30 97 0.0 4.8 0.00 0.00 0.00 74 1023.6
20260902152800 30 111 0.0 0.0 0.00 0.00 0.00 69 1023.6
20260902152256 29 102 3.2 4.8 0.00 0.00 0.00 74 1024.0
20260902151756 30 69 1.6 3.2 0.00 0.00 0.00 69 1024.0
20260902151252 29 332 0.0 0.0 0.00 0.00 0.00 71 1023.7
20260902150752 29 112 3.2 4.8 0.00 0.00 0.00 74 1023.9
20260902150248 28 99 1.6 3.2 0.00 0.00 0.00 75 1024.1
20260902145747 28 106 3.2 4.8 0.00 0.00 0.00 81 1023.9
20260902145243 28 81 3.2 3.2 0.00 0.00 0.00 77 1024.0
20260902144738 28 95 0.0 3.2 0.00 0.00 0.00 77 1024.2
20260902144234 29 108 3.2 3.2 0.00 0.00 0.00 78 1024.1
20260902143728 28 81 0.0 1.6 0.00 0.00 0.00 77 1024.2
20260902143224 27 80 3.2 3.2 0.00 0.00 0.00 78 1024.3
20260902142719 27 111 1.6 1.6 0.00 0.00 0.00 83 1024.4
20260902142215 26 112 1.6 3.2 0.00 0.00 0.00 83 1024.2
20260902141715 26 53 3.2 3.2 0.00 0.00 0.00 82 1024.3
20260902141211 26 68 1.6 3.2 0.00 0.00 0.00 81 1024.0
20260902140706 26 54 1.6 3.2 0.00 0.00 0.00 83 1024.2
20260902140200 26 17 0.0 1.6 0.00 0.00 0.00 84 1024.0
20260902135659 25 189 0.0 0.0 0.00 0.00 0.00 86 1024.2
20260902135155 24 114 1.6 3.2 0.00 0.00 0.00 89 1024.2
20260902134650 24 179 1.6 1.6 0.00 0.00 0.00 89 1024.3
20260902134150 23 226 1.6 3.2 0.00 0.00 0.00 90 1024.2
20260902133645 23 183 0.0 1.6 0.00 0.00 0.00 88 1024.2
20260902133139 23 191 1.6 1.6 0.00 0.00 0.00 89 1024.1
20260902132635 24 185 3.2 4.8 0.00 0.00 0.00 87 1024.1
20260902132130 24 197 3.2 4.8 0.00 0.00 0.00 87 1024.1
20260902131626 23 121 0.0 3.2 0.00 0.00 0.00 86 1024.1
20260902131121 23 206 0.0 1.6 0.00 0.00 0.00 91 1024.3
20260902130617 23 228 1.6 3.2 0.00 0.00 0.00 89 1024.2
20260902130117 23 221 0.0 1.6 0.00 0.00 0.00 89 1024.2
20260902125613 23 139 1.6 3.2 0.00 0.00 0.00 89 1024.0
20260902125108 23 245 0.0 3.2 0.00 0.00 0.00 89 1023.9
20260902124605 22 256 1.6 4.8 0.00 0.00 0.00 91 1024.2
20260902124105 22 240 1.6 3.2 0.00 0.00 0.00 92 1024.3
20260902123600 22 195 0.0 1.6 0.00 0.00 0.00 94 1024.0
20260902123056 21 256 1.6 3.2 0.00 0.00 0.00 94 1024.1
20260902122555 21 183 3.2 11.3 0.00 0.00 0.00 94 1024.1
20260902122051 20 119 3.2 6.4 0.00 0.00 0.00 96 1023.9
20260902121546 20 117 0.0 0.0 0.00 0.00 0.00 98 1023.9
20260902121040 20 343 0.0 0.0 0.00 0.00 0.00 99 1024.0
20260902120536 20 71 0.0 3.2 0.00 0.00 0.00 99 1023.9
20260902120032 19 68 4.8 4.8 0.00 0.00 0.00 99 1024.0
20260902115532 19 55 3.2 3.2 0.00 0.00 0.00 99 1023.9
20260902115029 19 196 0.0 1.6 0.00 0.00 0.00 99 1024.1
20260902114525 19 68 3.2 3.2 0.00 0.00 0.00 99 1023.9
20260902114024 19 71 0.0 1.6 0.00 0.00 0.00 99 1024.0
20260902113520 19 227 0.0 1.6 0.00 0.00 0.00 99 1024.1
20260902113015 18 81 0.0 1.6 0.00 0.00 0.00 99 1024.0
20260902112510 18 83 0.0 1.6 0.00 0.00 0.00 99 1024.1
20260902112007 19 90 0.0 0.0 0.00 0.00 0.00 99 1024.0
20260902111458 19 90 0.0 0.0 0.00 0.00 0.00 99 1024.0
20260902110953 19 112 0.0 0.0 0.00 0.00 0.00 99 1024.1
20260902110448 19 90 0.0 1.6 0.00 0.00 0.00 99 1024.1
20260902105943 19 57 0.0 0.0 0.00 0.00 0.00 99 1024.1
20260902105439 19 58 0.0 1.6 0.00 0.00 0.00 99 1023.9
20260902104933 19 290 0.0 1.6 0.00 0.00 0.00 99 1023.9
20260902104429 19 233 0.0 0.0 0.00 0.00 0.00 99 1023.9
20260902103928 20 227 1.6 3.2 0.00 0.00 0.00 98 1024.0
20260902103424 20 267 0.0 3.2 0.00 0.00 0.00 97 1024.0
20260902102919 20 228 3.2 6.4 0.00 0.00 0.00 96 1023.9
20260902102416 20 242 3.2 6.4 0.00 0.00 0.00 98 1023.9
20260902101912 20 227 1.6 3.2 0.00 0.00 0.00 98 1023.9
20260902101406 20 257 3.2 6.4 0.00 0.00 0.00 99 1023.7
20260902100906 19 231 1.6 1.6 0.00 0.00 0.00 99 1023.9
20260902100359 20 162 0.0 0.0 0.00 0.00 0.00 99 1023.7
20260902095854 20 229 1.6 3.2 0.00 0.00 0.00 99 1023.9
20260902095348 19 273 0.0 1.6 0.00 0.00 0.00 99 1023.6
20260902094843 20 210 0.0 1.6 0.00 0.00 0.00 99 1023.7
20260902094340 20 251 1.6 3.2 0.00 0.00 0.00 99 1023.9
20260902093838 20 244 1.6 3.2 0.00 0.00 0.00 99 1023.7
20260902093334 20 273 1.6 3.2 0.00 0.00 0.00 98 1023.9
20260902092832 20 253 1.6 4.8 0.00 0.00 0.00 98 1023.9
20260902092328 20 255 1.6 4.8 0.00 0.00 0.00 98 1023.7
20260902091822 20 238 1.6 4.8 0.00 0.00 0.00 98 1023.9
20260902091318 20 176 6.4 9.7 0.00 0.00 0.00 97 1023.7
20260902090815 20 158 0.0 0.0 0.00 0.00 0.00 98 1023.9
20260902090314 20 204 0.0 1.6 0.00 0.00 0.00 97 1024.1
20260902085813 20 211 3.2 4.8 0.00 0.00 0.00 97 1023.9
20260902085308 20 173 3.2 4.8 0.00 0.00 0.00 98 1024.0
20260902084804 20 126 0.0 0.0 0.00 0.00 0.00 99 1024.0
20260902084300 20 105 0.0 3.2 0.00 0.00 0.00 99 1023.6
20260902083755 20 65 1.6 3.2 0.00 0.00 0.00 99 1023.7
20260902083250 20 7 0.0 0.0 0.00 0.00 0.00 99 1023.9
20260902082745 20 50 3.2 4.8 0.00 0.00 0.00 99 1023.6
20260902082242 20 32 1.6 3.2 0.00 0.00 0.00 98 1023.6
20260902081737 20 157 1.6 3.2 0.00 0.00 0.00 98 1023.7
20260902081232 20 264 3.2 3.2 0.00 0.00 0.00 98 1023.6
20260902080727 20 197 1.6 1.6 0.00 0.00 0.00 98 1023.9
20260902080225 20 203 0.0 3.2 0.00 0.00 0.00 98 1023.7
20260902075723 20 165 0.0 0.0 0.00 0.00 0.00 98 1023.9
20260902075220 20 37 0.0 0.0 0.00 0.00 0.00 98 1023.6
20260902074719 20 58 3.2 4.8 0.00 0.00 0.00 98 1023.6
20260902074215 20 60 1.6 3.2 0.00 0.00 0.00 98 1023.6
20260902073710 20 250 3.2 4.8 0.00 0.00 0.00 98 1023.6
20260902073206 20 128 0.0 0.0 0.00 0.00 0.00 98 1023.4
20260902072702 20 70 0.0 0.0 0.00 0.00 0.00 98 1023.6
20260902072158 20 49 1.6 3.2 0.00 0.00 0.00 98 1023.6
20260902071654 20 114 0.0 1.6 0.00 0.00 0.00 98 1023.6
20260902071149 20 59 3.2 4.8 0.00 0.00 0.00 98 1023.5
20260902070645 20 83 0.0 0.0 0.00 0.00 0.00 97 1023.5
20260902070144 21 69 1.6 3.2 0.00 0.00 0.00 97 1023.4
20260902065643 20 226 3.2 4.8 0.00 0.00 0.00 97 1023.4
20260902065139 20 100 1.6 3.2 0.00 0.00 0.00 97 1023.4
20260902064634 21 34 0.0 0.0 0.00 0.00 0.00 97 1023.4
20260902064130 21 90 0.0 0.0 0.00 0.00 0.00 97 1023.2
20260902063625 21 87 0.0 0.0 0.00 0.00 0.00 96 1023.4
20260902063120 21 302 0.0 0.0 0.00 0.00 0.00 97 1023.5
20260902062619 21 144 1.6 3.2 0.00 0.00 0.00 96 1023.5
20260902062115 21 250 3.2 3.2 0.00 0.00 0.00 97 1023.4
20260902061609 21 104 0.0 3.2 0.00 0.00 0.00 96 1023.3
20260902061104 21 349 3.2 3.2 0.00 0.00 0.00 96 1023.4
20260902060600 21 166 1.6 4.8 0.00 0.00 0.00 96 1023.5
20260902060057 21 228 1.6 4.8 0.00 0.00 0.00 96 1023.4
20260902055552 21 249 3.2 3.2 0.00 0.00 0.00 96 1023.6
20260902055047 21 102 1.6 1.6 0.00 0.00 0.00 96 1023.4
20260902054542 21 164 0.0 1.6 0.00 0.00 0.00 97 1023.5
20260902054038 21 232 0.0 3.2 0.00 0.00 0.00 97 1023.6
20260902053532 20 224 1.6 1.6 0.00 0.00 0.00 97 1023.4
20260902053027 20 200 1.6 4.8 0.00 0.00 0.00 97 1023.3
20260902052522 20 243 3.2 3.2 0.00 0.00 0.00 97 1023.2
20260902052018 20 205 1.6 1.6 0.00 0.00 0.00 97 1023.2
20260902051517 20 91 3.2 4.8 0.00 0.00 0.00 97 1023.2
20260902051016 21 285 0.0 0.0 0.00 0.00 0.00 97 1023.0
20260902050510 21 273 0.0 1.6 0.00 0.00 0.00 96 1023.0
20260902050008 21 235 3.2 4.8 0.00 0.00 0.00 96 1023.0
20260902045500 21 159 0.0 1.6 0.00 0.00 0.00 97 1023.2
20260902044957 20 120 0.0 0.0 0.00 0.00 0.00 98 1023.3
20260902044452 20 251 0.0 0.0 0.00 0.00 0.00 97 1023.0
20260902043947 21 129 0.0 1.6 0.00 0.00 0.00 97 1023.0
20260902043442 21 176 0.0 1.6 0.00 0.00 0.00 97 1023.0
20260902042937 21 221 0.0 1.6 0.00 0.00 0.00 97 1022.9
20260902042437 21 182 1.6 1.6 0.00 0.00 0.00 96 1022.9
20260902041932 21 240 0.0 3.2 0.00 0.00 0.00 95 1023.0
20260902041427 21 250 1.6 4.8 0.00 0.00 0.00 95 1022.8
20260902040926 21 198 0.0 4.8 0.00 0.00 0.00 97 1022.8
20260902040420 21 177 1.6 1.6 0.00 0.00 0.00 96 1022.9
20260902035920 21 219 0.0 0.0 0.00 0.00 0.00 95 1022.6
20260902035415 21 239 1.6 3.2 0.00 0.00 0.00 95 1022.7
20260902034914 21 225 1.6 3.2 0.00 0.00 0.00 95 1022.5
20260902034410 21 260 3.2 6.4 0.00 0.00 0.00 95 1022.4
20260902033908 21 227 0.0 1.6 0.00 0.00 0.00 96 1022.5
20260902033402 21 187 1.6 1.6 0.00 0.00 0.00 95 1022.4
20260902032901 22 253 3.2 6.4 0.00 0.00 0.00 94 1022.4
20260902032357 22 187 1.6 6.4 0.00 0.00 0.00 92 1022.6
20260902031857 21 192 1.6 3.2 0.00 0.00 0.00 94 1022.6
20260902031353 22 266 3.2 4.8 0.00 0.00 0.00 93 1022.5
20260902030843 22 197 1.6 1.6 0.00 0.00 0.00 92 1022.5
20260902030337 22 251 0.0 3.2 0.00 0.00 0.00 93 1022.6
20260902025836 22 226 6.4 6.4 0.00 0.00 0.00 93 1022.5
20260902025332 22 202 6.4 9.7 0.00 0.00 0.00 92 1022.6
20260902024832 22 242 4.8 6.4 0.00 0.00 0.00 92 1022.5
20260902024327 21 236 0.0 1.6 0.00 0.00 0.00 94 1022.8
20260902023822 21 209 1.6 3.2 0.00 0.00 0.00 95 1022.6
20260902023319 21 60 3.2 4.8 0.00 0.00 0.00 95 1022.8
20260902022817 21 288 1.6 4.8 0.00 0.00 0.00 95 1022.9
20260902022313 21 93 0.0 4.8 0.00 0.00 0.00 95 1022.7
20260902021809 21 252 4.8 6.4 0.00 0.00 0.00 95 1022.9
20260902021309 21 184 0.0 1.6 0.00 0.00 0.00 95 1022.7
20260902020804 21 198 0.0 1.6 0.00 0.00 0.00 95 1022.7
20260902020300 21 222 0.0 0.0 0.00 0.00 0.00 95 1022.8